OBJECT B, 65939

Orbit data source: Space-Track

You're viewing an Uncataloged Satellite

Recently launched and/or uncataloged satellites may have evolving metadata. Metadata may include but not limited to: Owner, Maufacturer, Bus, Motor, and Mission.

OBJECT B, 65939 is a satellite owned by Shikong Daoyu (CN) in SSO that was launched on Sat, 11 Oct 2025 UTC via a YINLI-1 launch vehicle from the Yellow Sea Launch Area, China (YSLA). Unknown objects in Earth's orbit typically refer to objects detected orbiting the Earth but have not yet been identified or cataloged. These objects could be anything from previously untracked satellites, spent rocket stages, debris from satellite collisions, or even natural meteoroids temporarily captured by Earth's gravity.

Loading next visibility...
Identifier
65939, 2025-226B
Orbit
SSO
Country
Flag of CNCN / PRC
Related business
Flag of CNShikong Daoyi Keji YG (CN)
Manufacturer
GWCG
Mission
Operational spacecraft
Bus & Motor
GSP50, Unknown motor
Mass
~50 kg wet, ~50 kg dry
Launch date (UTC)
2025-10-11 (1 month ago)
Launch vehicle
YINLI-1
Launch site
Yellow Sea Launch Area, China (YSLA)
Object type
Unknown
Shape & HBR
Unknown shape, 1.1 m
Radar Cross Section
RCS unknown

Expand to show TLE details & history
Last TLE update: 2 days ago

TLE from 2 days ago
0 OBJECT B
1 65939U 25226B   25312.83749922  .00009277  00000-0  57443-3 0  9997
2 65939  97.6610  26.9615 0021328 185.3581 174.7423 15.09826283  4331
Epoch: 2025-11-08T20:05Z
TLE epoch observation values (Epoch: 2025-11-08T20:05:59.932Z)
Latitude
-0.00003°
Longitude
37.20041°
Altitude
554.489 km
Speed
7.576 km/s
True Right ascension
01h 47m 50s
True Declination
0° 00' 00"
Sunlit
Object was in full shadow at epoch
Visualization orbit readout
Latitude
Unknown
Longitude
Unknown
Altitude
Unknown
Speed
Unknown
Apparent Right ascension
Unknown
Apparent Declination
Unknown
Sunlit
N/A
Visualization observer readout
Local Sidereal Time
04:41:11
Azimuth
Unknown
Elevation
Unknown
Doppler factor
Unknown
Orbital elements
Apogee altitude
548.462 km
Perigee altitude
518.979 km
Semi-major axis
6,911.858 km
Eccentricity
0.00213
Inclination
97.661°
RAAN
26.9615°
Arg. of periapsis
185.3581°
True anomaly
174.76464°
Mean anomaly
174.7423°
Eccentric anomaly
174.75347°
Mean motion
3.77703 °/min
Orbital period
95.31 mins
BSTAR
0.00057443
Loading maneuver chart data...
Computing Atmospheric mass density...
Loading historical data...
Loading historical data...
Loading historical data...
Loading historical data...
Loading historical data...
Loading historical data...
Loading historical data...
Other satellites on launch #226 in the year 2025 (2025-10-11 UTC)

Documentation

Showing up to 5 results
|